Location: Hermaringen
(48.5952°N, 10.2585°E)
Time: 22:01:37
(UTC+00:00)

Vanguard 2 - Visible Passes

Search period start: 18 February 2026 00:00
Search period end: 28 February 2026 00:00
Orbit: 553 x 2897 km, 32.9° (Epoch: 18 February)

Date Brightness Start Highest point End Pass type
(mag) Time Alt. Az. Time Alt. Az. Time Alt. Az.
20 Feb 9.9 04:54:23 10° SSW 04:56:05 11° S 04:57:38 10° SSE visible
21 Feb 9.8 05:05:16 10° SSW 05:07:49 13° S 05:10:02 10° SSE visible
22 Feb 10.2 03:12:34 12° SSE 03:12:34 12° SSE 03:14:41 10° SSE visible
22 Feb 9.7 05:16:33 10° SW 05:19:31 14° S 05:22:03 10° SSE visible
23 Feb 10.0 03:23:47 15° S 03:24:05 15° S 03:27:25 10° SE visible
23 Feb 9.7 05:28:04 10° SW 05:31:13 15° S 05:33:52 10° SSE visible
24 Feb 9.9 03:34:56 17° S 03:35:50 18° S 03:39:42 10° SE visible
25 Feb 9.8 03:46:05 18° SSW 03:47:34 20° S 03:51:45 10° SE visible
26 Feb 10.6 01:56:15 11° SE 01:56:15 11° SE 01:56:37 10° SE visible
26 Feb 9.7 03:57:11 19° SSW 03:59:17 21° S 04:03:38 10° SE visible
27 Feb 10.4 02:07:19 15° SE 02:07:19 15° SE 02:08:55 10° SE visible
27 Feb 9.6 04:08:15 18° SW 04:10:58 22° S 04:15:25 10° SE visible
